Simultaneous Nadir Overpasses (SNOs) Predictions

Prediction of SNOs between LANDSAT-8 and METOP-A Satellite Orbit:

Table of predicted SNOs for the next 14.0 days since TLE Epoch: 11/6/2021
Index Date (LANDSAT-8) Time (LANDSAT-8) Lat,Lon (LANDSAT-8) SZA (LANDSAT-8 ) Date (METOP-A) Time (METOP-A) Lat,Lon (METOP-A) SZA (METOP-A ) Distance(km) Time Diff (sec)
1 11/07/2021 11:14:11 -81.29,-125.80 79.67 11/07/2021 11:14:07 -81.30,-125.61 79.65 3.23 4
2 11/07/2021 12:03:37 81.30, 41.97 100.36 11/07/2021 12:04:47 81.28, 42.12 100.40 3.07 70
3 11/10/2021 05:58:58 81.30, 133.19 101.15 11/10/2021 05:57:46 81.31, 133.25 101.12 1.02 72
4 11/10/2021 06:48:25 -81.30, -59.24 78.86 11/10/2021 06:48:26 -81.30, -59.24 78.86 0.07 1
5 11/10/2021 07:37:50 81.32, 108.87 101.22 11/10/2021 07:38:59 81.17, 111.10 101.40 41.66 69
6 11/13/2021 01:33:11 81.30,-160.36 101.90 11/13/2021 01:32:04 81.31,-160.42 101.87 1.19 67
7 11/13/2021 02:22:38 -81.30, 7.24 78.10 11/13/2021 02:22:44 -81.30, 7.11 78.11 2.29 6
8 11/15/2021 21:07:25 81.30, -93.98 102.60 11/15/2021 21:06:23 81.31, -94.13 102.56 2.74 62
9 11/15/2021 21:56:52 -81.30, 73.65 77.40 11/15/2021 21:57:02 -81.28, 73.79 77.39 2.90 10
10 11/18/2021 16:41:39 81.29, -27.68 103.24 11/18/2021 16:40:41 81.30, -27.49 103.24 3.21 58



Historial Predications of SNOs between LANDSAT-8 and METOP-A
